| time (UTC) | temp C | wind direction | speed KPH | gust KPH | rain 1hr cm | rain 24hr cm | rain mn cm | humidity % | barometer mb |
| 20260504185420 | 27 | 115 | 6.4 | 12.9 | 0.00 | 0.00 | 0.00 | 55 | 1014.9 |
| 20260504184915 | 27 | 162 | 4.8 | 11.3 | 0.00 | 0.00 | 0.00 | 54 | 1014.6 |
| 20260504184411 | 28 | 143 | 8.0 | 14.5 | 0.00 | 0.00 | 0.00 | 54 | 1014.8 |
| 20260504183908 | 27 | 254 | 1.6 | 6.4 | 0.00 | 0.00 | 0.00 | 52 | 1014.9 |
| 20260504183405 | 27 | 35 | 0.0 | 4.8 | 0.00 | 0.00 | 0.00 | 53 | 1014.8 |
| 20260504182903 | 27 | 161 | 6.4 | 16.1 | 0.00 | 0.00 | 0.00 | 56 | 1014.8 |
| 20260504182400 | 28 | 109 | 6.4 | 9.7 | 0.00 | 0.00 | 0.00 | 53 | 1014.8 |
| 20260504181856 | 27 | 75 | 1.6 | 3.2 | 0.00 | 0.00 | 0.00 | 55 | 1015.0 |
| 20260504181354 | 28 | 135 | 9.7 | 14.5 | 0.00 | 0.00 | 0.00 | 50 | 1015.2 |
| 20260504180853 | 27 | 56 | 3.2 | 11.3 | 0.00 | 0.00 | 0.00 | 55 | 1015.0 |
| 20260504180351 | 27 | 264 | 3.2 | 4.8 | 0.00 | 0.00 | 0.00 | 54 | 1015.3 |
| 20260504175849 | 27 | 293 | 3.2 | 6.4 | 0.00 | 0.00 | 0.00 | 54 | 1015.4 |
| 20260504175345 | 27 | 121 | 6.4 | 12.9 | 0.00 | 0.00 | 0.00 | 55 | 1015.5 |
| 20260504174843 | 27 | 297 | 4.8 | 14.5 | 0.00 | 0.00 | 0.00 | 55 | 1015.5 |
| 20260504174341 | 27 | 123 | 4.8 | 11.3 | 0.00 | 0.00 | 0.00 | 54 | 1015.7 |
| 20260504173837 | 27 | 218 | 4.8 | 6.4 | 0.00 | 0.00 | 0.00 | 53 | 1015.5 |
| 20260504173334 | 27 | 192 | 3.2 | 9.7 | 0.00 | 0.00 | 0.00 | 55 | 1015.6 |
| 20260504172831 | 27 | 146 | 9.7 | 11.3 | 0.00 | 0.00 | 0.00 | 53 | 1015.8 |
| 20260504172328 | 26 | 112 | 4.8 | 6.4 | 0.00 | 0.00 | 0.00 | 56 | 1016.0 |
| 20260504171824 | 27 | 164 | 9.7 | 22.5 | 0.00 | 0.00 | 0.00 | 54 | 1016.0 |
| 20260504171321 | 26 | 156 | 6.4 | 11.3 | 0.00 | 0.00 | 0.00 | 58 | 1016.0 |
| 20260504170818 | 26 | 135 | 8.0 | 11.3 | 0.00 | 0.00 | 0.00 | 55 | 1016.3 |
| 20260504170315 | 26 | 64 | 4.8 | 9.7 | 0.00 | 0.00 | 0.00 | 56 | 1016.3 |
| 20260504160233 | 26 | 267 | 3.2 | 11.3 | 0.00 | 0.00 | 0.00 | 56 | 1017.0 |
| 20260504150659 | 25 | 143 | 3.2 | 6.4 | 0.00 | 0.00 | 0.00 | 61 | 1016.7 |
| 20260504150155 | 24 | 144 | 8.0 | 11.3 | 0.00 | 0.00 | 0.00 | 62 | 1016.8 |
| 20260504141124 | 23 | 166 | 4.8 | 9.7 | 0.00 | 0.00 | 0.00 | 65 | 1017.0 |
| 20260504140621 | 22 | 110 | 6.4 | 9.7 | 0.00 | 0.00 | 0.00 | 65 | 1016.7 |
| 20260504140117 | 22 | 130 | 4.8 | 6.4 | 0.00 | 0.00 | 0.00 | 68 | 1016.9 |
| 20260504130545 | 18 | 127 | 1.6 | 4.8 | 0.00 | 0.00 | 0.00 | 78 | 1016.8 |
| 20260504110432 | 12 | 1 | 0.0 | 0.0 | 0.00 | 0.00 | 0.00 | 93 | 1016.5 |
| 20260504100349 | 13 | 330 | 0.0 | 0.0 | 0.00 | 0.00 | 0.00 | 91 | 1016.9 |
| 20260504081742 | 12 | 306 | 0.0 | 0.0 | 0.00 | 0.00 | 0.00 | 91 | 1017.3 |
| 20260504081239 | 13 | 306 | 0.0 | 0.0 | 0.00 | 0.00 | 0.00 | 90 | 1017.4 |
| 20260504080735 | 13 | 306 | 0.0 | 0.0 | 0.00 | 0.00 | 0.00 | 90 | 1017.6 |
| 20260504080232 | 13 | 306 | 0.0 | 0.0 | 0.00 | 0.00 | 0.00 | 89 | 1017.9 |
| 20260504070200 | 13 | 120 | 0.0 | 0.0 | 0.00 | 0.00 | 0.00 | 88 | 1018.5 |
| 20260504060120 | 13 | 120 | 0.0 | 0.0 | 0.00 | 0.00 | 0.00 | 83 | 1019.0 |
| 20260504050548 | 14 | 193 | 0.0 | 0.0 | 0.00 | 0.00 | 0.00 | 82 | 1019.7 |
| 20260504045542 | 14 | 181 | 0.0 | 0.0 | 0.00 | 0.00 | 0.00 | 82 | 1019.4 |
| 20260504045037 | 13 | 140 | 0.0 | 1.6 | 0.00 | 0.00 | 0.00 | 84 | 1019.3 |
| 20260504044535 | 13 | 118 | 0.0 | 0.0 | 0.00 | 0.00 | 0.00 | 82 | 1019.7 |
| 20260504044032 | 14 | 116 | 0.0 | 0.0 | 0.00 | 0.00 | 0.00 | 82 | 1019.3 |
| 20260504043529 | 14 | 116 | 0.0 | 0.0 | 0.00 | 0.00 | 0.00 | 81 | 1019.6 |
| 20260504043026 | 14 | 116 | 0.0 | 0.0 | 0.00 | 0.00 | 0.00 | 80 | 1019.6 |
| 20260504042523 | 14 | 116 | 0.0 | 0.0 | 0.00 | 0.00 | 0.00 | 80 | 1019.8 |
| 20260504042020 | 15 | 116 | 0.0 | 0.0 | 0.00 | 0.00 | 0.00 | 79 | 1019.6 |
| 20260504041516 | 15 | 116 | 0.0 | 0.0 | 0.00 | 0.00 | 0.00 | 79 | 1019.9 |
| 20260504041012 | 15 | 116 | 0.0 | 0.0 | 0.00 | 0.00 | 0.00 | 77 | 1019.6 |
| 20260504040510 | 15 | 116 | 0.0 | 0.0 | 0.00 | 0.00 | 0.00 | 77 | 1019.7 |
| 20260504040006 | 15 | 116 | 0.0 | 0.0 | 0.00 | 0.00 | 0.00 | 75 | 1019.5 |
| 20260504035503 | 15 | 116 | 0.0 | 0.0 | 0.00 | 0.00 | 0.00 | 75 | 1019.3 |
| 20260504034959 | 15 | 116 | 0.0 | 0.0 | 0.00 | 0.00 | 0.00 | 75 | 1019.5 |
| 20260504034457 | 16 | 116 | 0.0 | 0.0 | 0.00 | 0.00 | 0.00 | 74 | 1019.8 |
| 20260504033954 | 16 | 138 | 0.0 | 0.0 | 0.00 | 0.00 | 0.00 | 72 | 1019.7 |
| 20260504033452 | 16 | 138 | 0.0 | 0.0 | 0.00 | 0.00 | 0.00 | 70 | 1019.6 |
| 20260504032949 | 17 | 138 | 0.0 | 0.0 | 0.00 | 0.00 | 0.00 | 69 | 1019.6 |
| 20260504032445 | 17 | 138 | 0.0 | 0.0 | 0.00 | 0.00 | 0.00 | 69 | 1019.7 |
| 20260504031942 | 17 | 138 | 0.0 | 0.0 | 0.00 | 0.00 | 0.00 | 68 | 1019.5 |
| 20260504031439 | 17 | 140 | 0.0 | 1.6 | 0.00 | 0.00 | 0.00 | 68 | 1019.5 |
| 20260504030936 | 17 | 108 | 0.0 | 1.6 | 0.00 | 0.00 | 0.00 | 67 | 1019.4 |
| 20260504030433 | 17 | 144 | 0.0 | 1.6 | 0.00 | 0.00 | 0.00 | 67 | 1019.4 |
| 20260504025929 | 18 | 126 | 0.0 | 0.0 | 0.00 | 0.00 | 0.00 | 66 | 1019.5 |
| 20260504025426 | 18 | 143 | 0.0 | 0.0 | 0.00 | 0.00 | 0.00 | 66 | 1019.5 |
| 20260504024923 | 18 | 127 | 0.0 | 3.2 | 0.00 | 0.00 | 0.00 | 65 | 1019.4 |
| 20260504024420 | 18 | 142 | 0.0 | 1.6 | 0.00 | 0.00 | 0.00 | 64 | 1019.3 |
| 20260504023917 | 18 | 162 | 0.0 | 4.8 | 0.00 | 0.00 | 0.00 | 63 | 1019.2 |
| 20260504023413 | 18 | 135 | 0.0 | 4.8 | 0.00 | 0.00 | 0.00 | 63 | 1019.2 |
| 20260504022909 | 18 | 126 | 1.6 | 4.8 | 0.00 | 0.00 | 0.00 | 63 | 1019.4 |
| 20260504022406 | 19 | 149 | 1.6 | 4.8 | 0.00 | 0.00 | 0.00 | 62 | 1019.2 |
| 20260504021902 | 19 | 70 | 0.0 | 1.6 | 0.00 | 0.00 | 0.00 | 61 | 1019.2 |
| 20260504021400 | 19 | 142 | 1.6 | 3.2 | 0.00 | 0.00 | 0.00 | 60 | 1019.1 |
| 20260504020857 | 20 | 167 | 0.0 | 3.2 | 0.00 | 0.00 | 0.00 | 58 | 1019.1 |
| 20260504020353 | 20 | 153 | 1.6 | 3.2 | 0.00 | 0.00 | 0.00 | 57 | 1019.0 |
| 20260504015849 | 20 | 130 | 6.4 | 6.4 | 0.00 | 0.00 | 0.00 | 56 | 1019.3 |
| 20260504015346 | 20 | 105 | 3.2 | 6.4 | 0.00 | 0.00 | 0.00 | 55 | 1018.9 |
| 20260504014842 | 20 | 156 | 4.8 | 6.4 | 0.00 | 0.00 | 0.00 | 55 | 1019.2 |
| 20260504014338 | 20 | 170 | 3.2 | 6.4 | 0.00 | 0.00 | 0.00 | 54 | 1018.9 |
| 20260504013836 | 20 | 133 | 4.8 | 6.4 | 0.00 | 0.00 | 0.00 | 53 | 1019.0 |
| 20260504013333 | 20 | 101 | 1.6 | 3.2 | 0.00 | 0.00 | 0.00 | 53 | 1019.1 |
| 20260504012830 | 21 | 129 | 3.2 | 6.4 | 0.00 | 0.00 | 0.00 | 53 | 1019.1 |
| 20260504012328 | 21 | 145 | 1.6 | 3.2 | 0.00 | 0.00 | 0.00 | 52 | 1019.1 |
| 20260504011825 | 21 | 147 | 4.8 | 9.7 | 0.00 | 0.00 | 0.00 | 51 | 1019.0 |
| 20260504011321 | 21 | 117 | 3.2 | 4.8 | 0.00 | 0.00 | 0.00 | 52 | 1019.0 |
| 20260504010817 | 21 | 282 | 1.6 | 4.8 | 0.00 | 0.00 | 0.00 | 50 | 1019.1 |
| 20260504010313 | 21 | 134 | 4.8 | 6.4 | 0.00 | 0.00 | 0.00 | 49 | 1019.0 |
| 20260504005810 | 21 | 122 | 3.2 | 9.7 | 0.00 | 0.00 | 0.00 | 49 | 1018.9 |
| 20260504005307 | 21 | 261 | 3.2 | 4.8 | 0.00 | 0.00 | 0.00 | 48 | 1019.0 |
| 20260504004804 | 22 | 158 | 4.8 | 6.4 | 0.00 | 0.00 | 0.00 | 47 | 1019.0 |
| 20260504004302 | 22 | 127 | 3.2 | 9.7 | 0.00 | 0.00 | 0.00 | 46 | 1019.0 |
| 20260504003758 | 22 | 101 | 3.2 | 9.7 | 0.00 | 0.00 | 0.00 | 46 | 1019.1 |
| 20260504003255 | 22 | 140 | 1.6 | 4.8 | 0.00 | 0.00 | 0.00 | 47 | 1018.9 |
| 20260504002751 | 22 | 164 | 3.2 | 4.8 | 0.00 | 0.00 | 0.00 | 46 | 1018.9 |
| 20260504002249 | 22 | 136 | 4.8 | 6.4 | 0.00 | 0.00 | 0.00 | 45 | 1019.1 |
| 20260504001746 | 22 | 133 | 3.2 | 11.3 | 0.00 | 0.00 | 0.00 | 44 | 1019.0 |
| 20260504001243 | 22 | 137 | 6.4 | 9.7 | 0.00 | 0.00 | 0.00 | 44 | 1018.8 |
| 20260504000740 | 22 | 146 | 4.8 | 11.3 | 0.00 | 0.00 | 0.00 | 45 | 1018.8 |
| 20260504000237 | 23 | 155 | 3.2 | 12.9 | 0.00 | 0.00 | 0.00 | 44 | 1018.9 |
| 20260503235735 | 23 | 95 | 4.8 | 9.7 | 0.00 | 0.00 | 0.00 | 45 | 1019.0 |
| 20260503235232 | 23 | 229 | 3.2 | 9.7 | 0.00 | 0.00 | 0.00 | 43 | 1019.0 |
| 20260503234730 | 23 | 137 | 6.4 | 11.3 | 0.00 | 0.00 | 0.00 | 42 | 1019.0 |
| 20260503234228 | 23 | 100 | 9.7 | 14.5 | 0.00 | 0.00 | 0.00 | 41 | 1019.1 |
| 20260503233725 | 24 | 135 | 4.8 | 9.7 | 0.00 | 0.00 | 0.00 | 43 | 1018.9 |
| 20260503233220 | 24 | 117 | 8.0 | 14.5 | 0.00 | 0.00 | 0.00 | 41 | 1019.1 |
| 20260503232717 | 24 | 168 | 9.7 | 12.9 | 0.00 | 0.00 | 0.00 | 40 | 1019.3 |
| 20260503232214 | 25 | 57 | 6.4 | 12.9 | 0.00 | 0.00 | 0.00 | 40 | 1019.3 |
| 20260503231713 | 25 | 84 | 3.2 | 9.7 | 0.00 | 0.00 | 0.00 | 41 | 1019.3 |
| 20260503231209 | 25 | 148 | 4.8 | 14.5 | 0.00 | 0.00 | 0.00 | 40 | 1019.0 |
| 20260503230705 | 25 | 104 | 4.8 | 9.7 | 0.00 | 0.00 | 0.00 | 40 | 1019.3 |
| 20260503230202 | 25 | 165 | 9.7 | 14.5 | 0.00 | 0.00 | 0.00 | 40 | 1019.3 |
| 20260503225700 | 25 | 115 | 3.2 | 6.4 | 0.00 | 0.00 | 0.00 | 40 | 1019.2 |
| 20260503225159 | 25 | 102 | 4.8 | 9.7 | 0.00 | 0.00 | 0.00 | 38 | 1019.2 |
| 20260503224657 | 25 | 133 | 6.4 | 9.7 | 0.00 | 0.00 | 0.00 | 39 | 1019.4 |
| 20260503224155 | 25 | 112 | 1.6 | 6.4 | 0.00 | 0.00 | 0.00 | 40 | 1019.3 |
| 20260503223653 | 26 | 122 | 9.7 | 14.5 | 0.00 | 0.00 | 0.00 | 39 | 1019.5 |
| 20260503223149 | 26 | 25 | 1.6 | 6.4 | 0.00 | 0.00 | 0.00 | 39 | 1019.7 |
| 20260503222646 | 25 | 312 | 1.6 | 9.7 | 0.00 | 0.00 | 0.00 | 39 | 1019.5 |
| 20260503222144 | 26 | 343 | 4.8 | 9.7 | 0.00 | 0.00 | 0.00 | 40 | 1019.7 |
| 20260503221642 | 25 | 137 | 8.0 | 11.3 | 0.00 | 0.00 | 0.00 | 40 | 1019.8 |
| 20260503221139 | 25 | 138 | 6.4 | 9.7 | 0.00 | 0.00 | 0.00 | 39 | 1019.8 |
| 20260503220636 | 25 | 129 | 3.2 | 12.9 | 0.00 | 0.00 | 0.00 | 40 | 1019.8 |
| 20260503220132 | 25 | 128 | 1.6 | 6.4 | 0.00 | 0.00 | 0.00 | 42 | 1019.7 |
| 20260503215630 | 25 | 110 | 3.2 | 12.9 | 0.00 | 0.00 | 0.00 | 41 | 1019.9 |
| 20260503215126 | 25 | 98 | 1.6 | 6.4 | 0.00 | 0.00 | 0.00 | 41 | 1019.8 |
| 20260503214625 | 25 | 150 | 6.4 | 11.3 | 0.00 | 0.00 | 0.00 | 41 | 1019.9 |
| 20260503214121 | 26 | 107 | 9.7 | 12.9 | 0.00 | 0.00 | 0.00 | 38 | 1020.0 |
| 20260503213620 | 26 | 125 | 4.8 | 16.1 | 0.00 | 0.00 | 0.00 | 39 | 1020.1 |
| 20260503213116 | 26 | 129 | 9.7 | 17.7 | 0.00 | 0.00 | 0.00 | 36 | 1020.3 |
| 20260503212614 | 27 | 148 | 6.4 | 9.7 | 0.00 | 0.00 | 0.00 | 32 | 1020.2 |
| 20260503212111 | 27 | 171 | 4.8 | 9.7 | 0.00 | 0.00 | 0.00 | 32 | 1020.0 |
| 20260503211609 | 27 | 148 | 6.4 | 9.7 | 0.00 | 0.00 | 0.00 | 31 | 1020.3 |
| 20260503211103 | 26 | 155 | 1.6 | 3.2 | 0.00 | 0.00 | 0.00 | 32 | 1020.2 |
| 20260503210600 | 26 | 127 | 3.2 | 9.7 | 0.00 | 0.00 | 0.00 | 30 | 1020.4 |
| 20260503210056 | 27 | 162 | 6.4 | 12.9 | 0.00 | 0.00 | 0.00 | 32 | 1020.6 |
| 20260503205553 | 26 | 111 | 3.2 | 3.2 | 0.00 | 0.00 | 0.00 | 32 | 1020.4 |
| 20260503205049 | 26 | 43 | 4.8 | 9.7 | 0.00 | 0.00 | 0.00 | 32 | 1020.6 |
| 20260503204546 | 26 | 205 | 6.4 | 14.5 | 0.00 | 0.00 | 0.00 | 34 | 1020.7 |
| 20260503204044 | 27 | 144 | 4.8 | 4.8 | 0.00 | 0.00 | 0.00 | 32 | 1020.8 |
| 20260503203541 | 26 | 149 | 6.4 | 11.3 | 0.00 | 0.00 | 0.00 | 32 | 1020.6 |
| 20260503203038 | 27 | 46 | 3.2 | 11.3 | 0.00 | 0.00 | 0.00 | 30 | 1020.9 |
| 20260503202536 | 27 | 142 | 4.8 | 9.7 | 0.00 | 0.00 | 0.00 | 31 | 1021.1 |
| 20260503202033 | 27 | 331 | 0.0 | 3.2 | 0.00 | 0.00 | 0.00 | 34 | 1021.0 |
| 20260503201531 | 26 | 145 | 6.4 | 14.5 | 0.00 | 0.00 | 0.00 | 33 | 1021.3 |
| 20260503201028 | 27 | 117 | 3.2 | 11.3 | 0.00 | 0.00 | 0.00 | 31 | 1021.6 |
| 20260503200524 | 27 | 104 | 3.2 | 9.7 | 0.00 | 0.00 | 0.00 | 34 | 1021.3 |
| 20260503200021 | 27 | 44 | 0.0 | 1.6 | 0.00 | 0.00 | 0.00 | 35 | 1021.6 |
| 20260503195518 | 26 | 124 | 1.6 | 12.9 | 0.00 | 0.00 | 0.00 | 31 | 1021.5 |
| 20260503195015 | 27 | 142 | 4.8 | 11.3 | 0.00 | 0.00 | 0.00 | 33 | 1021.4 |
| 20260503194513 | 27 | 294 | 1.6 | 9.7 | 0.00 | 0.00 | 0.00 | 35 | 1021.4 |
| 20260503194012 | 27 | 119 | 6.4 | 9.7 | 0.00 | 0.00 | 0.00 | 34 | 1021.6 |
| 20260503193509 | 27 | 338 | 1.6 | 6.4 | 0.00 | 0.00 | 0.00 | 32 | 1021.7 |
| 20260503193004 | 27 | 45 | 3.2 | 9.7 | 0.00 | 0.00 | 0.00 | 33 | 1021.7 |
| 20260503192500 | 27 | 10 | 1.6 | 9.7 | 0.00 | 0.00 | 0.00 | 35 | 1021.6 |
| 20260503191955 | 27 | 57 | 1.6 | 9.7 | 0.00 | 0.00 | 0.00 | 31 | 1021.7 |
| 20260503191454 | 27 | 359 | 3.2 | 6.4 | 0.00 | 0.00 | 0.00 | 31 | 1022.0 |
| 20260503190949 | 27 | 14 | 1.6 | 1.6 | 0.00 | 0.00 | 0.00 | 33 | 1022.2 |
| 20260503190447 | 26 | 124 | 1.6 | 11.3 | 0.00 | 0.00 | 0.00 | 34 | 1022.2 |
| 20260503185944 | 27 | 115 | 6.4 | 9.7 | 0.00 | 0.00 | 0.00 | 33 | 1022.2 |